CZ-6A DEB

Satellite information

Favourite Embed

Satellite Type and Status

DEBRISIN ORBIT

Key statistics

Satellite CZ-6A DEB at a glance.

Uptime

1029

Days in orbit

Revolutions

≈ 14.1

Per day

Orbit

SSO

Sun Synchronous Orbit

Inclination

98.8

Latest

Satellite identification and parameters

Extended collection of information and parameters for CZ-6A DEB.

Object identification

Identified? True

Debris? True

Object name: CZ-6A DEB

International designator: 2022-151AG

Object number (NORAD): 54289

Object ID (CCSDS): 54289

Country: PEOPLES REPUBLIC OF CHINA (PRC)

Current information (Y/N): Y

RCS size: SMALL

Orbital parameters

Period: 102.27 minutes

Inclination: 98.8351 deg

SMA: 7244.22 km

Apoapsis: 906.374 km

Periapsis: 825.796 km

RAAN: 242.4029 deg

Eccentricy: 0.00556159

Argument of periapsis: 82.9839 deg

Mean anomaly: 277.7652 deg

Mean motion: 14.08041063 rev/day

Mean motion (dot): 0.00000653 rev/day2

B* drag term: 0.00040313785 1/REarth

Two-line elements (TLE)

Creation date: Sept. 3, 2025, 2:21 a.m.

Reference frame: TEME

Reference center: EARTH

Epoch: Sept. 2, 2025, 10:07 p.m. UTC

TLE line 0: 0 CZ-6A DEB

TLE line 1: 1 54289U 22151AG 25245.92191589 .00000653 00000-0 40314-3 0 9990

TLE line 2: 2 54289 98.8351 242.4029 0055616 82.9839 277.7652 14.08041063143774

Live tracking on map

Real-time ground track for satellite CZ-6A DEB.

In-orbit conjunctions

A list of the most updated potential collisions computed for object CZ-6A DEB.

Target Orbit TCA Probability of collision Miss distance Type
CZ-6A DEB LEO 2025-04-13 00:51:17 0.0002588047 139.0 (m) DEBRIS
FENGYUN 1C DEB SSO 2024-09-26 10:11:41 0.0005518818 41.0 (m) DEBRIS
FENGYUN 1C DEB SSO 2024-06-20 09:31:27 0.0002624952 69.0 (m) DEBRIS

Associated space launch

Chinese satellite reported for atmospheric/ocean/environmental/spatial parameter research purposes, details TBD.

CZ-6A DEB was lifted into orbit during the mission ‘Long March 6A | Yunhai 3’, on board a Long March 6A space rocket.

The launch took place on Nov. 11, 2022, 10:52 p.m. from Launch Complex 9A.

For more information about the launch, click the button.

Launch to space Long March 6A | Yunhai 3
Long March 6A | Yunhai 3

Agency: N/A

Status: Launch Successful

Launch date: Nov. 11, 2022, 10:52 p.m. UTC

Rocket: Long March 6A

Launch pad: Launch Complex 9A

Location: Taiyuan Satellite Launch Center, People's Republic of China

...

Latest news about this satellite

There are no fresh news available about this satellite. Check back as we update our databases every day.


Newsletter sign-up

Weekly statistics, charts and insights to help you stay on top of the space industry.